CZ-6A DEB, 55888

Orbit data source: Space-Track

CZ-6A DEB, 55888 is space debris in SSO originally from a launch on Fri, 11 Nov 2022 UTC launched from the Taiyaun Space Center, China (TSC). Debris objects in space refer to the collection of defunct objects orbiting the Earth. Examples of debris include non-operational satellites, rocket bodies, and fragments generated from explosions, collisions, or faulty payload assembly.

Loading next visibility...
Identifier
55888, 2022-151AAL
Orbit
SSO
Last TLE update
1 day ago
Origin
Manufacturer
SAST
Mission
Spacecraft
Bus & Motor
Unknown
Mass
Unknown
Launch date (UTC)
2022-11-11 (3 years ago)
Launch vehicle
Unknown
Launch site
Taiyaun Space Center, China (TSC)
Object type
Payload
Rocket body
Debris
Shape & HBR
Unknown
Radar Cross Section
Small (<0.1 m²)

Expand to show TLE details & history

TLE from 1 day ago
0 CZ-6A DEB
1 55888U 22151AAL 25132.49822486  .00008864  00000-0  18495-2 0  9996
2 55888  98.4756 149.4405 0143807  91.2327 270.5347 14.53799410126144
Epoch: 2025-05-12T11:57Z
Definitive object data (Epoch: 2025-05-12T11:57:26.627Z)
Latitude
-0.00015°
Longitude
99.56913°
Altitude
716.75 km
Speed
7.497 km/s
True Right ascension
09h 57m 45s
True Declination
0° 00' 01"
Sunlit
Object was in daylight at TLE epoch
Visualization TLE readout
Latitude
63.94404°
Longitude
-61.51044°
Altitude
633.387 km
Speed
7.596 km/s
Apparent Right ascension
17h 15m 06s
Apparent Declination
29° 57' 29"
Sunlit
Object is in daylight
Visualization observer readout
Local Sidereal Time
02:38:50
Azimuth
326.167° NNW
Elevation
-11.274°
Doppler factor
1
Orbital elements
Apogee altitude
812.305 km
Perigee altitude
608.43 km
Semi-major axis
7,088.505 km
Eccentricity
0.0143807
Inclination
98.4756°
RAAN
149.4405°
Arg. of periapsis
91.2327°
True anomaly
268.88682°
Mean anomaly
270.5347°
Eccentric anomaly
269.71076°
Mean motion
3.63673 °/min
BSTAR
0.0018495
Orbital period
98.99 mins
Loading maneuver chart data...
Loading SW <> Apogee altitude chart data...
Loading historical data...
Loading historical data...
Loading historical data...
Loading historical data...
Loading historical data...
Loading historical data...
Loading historical data...

CZ-6A DEB Visibility forecast

Observer location: undefined°, undefined°

Span
Click to sort rows by Start time (UTC) header in descending order
Start Az.
Max El. time (UTC)
Max El. Az.
Max El.
End time (UTC)
End Az.
6 mins2025-05-14 00:26:18.488Z128.001° SE2025-05-14 00:29:18.488Z71.788° E29.118°2025-05-14 00:32:18.488Z12.761° NNE
5 mins2025-05-14 02:05:18.488Z230.442° WSW2025-05-14 02:07:18.488Z263.728° W18.988°2025-05-14 02:10:18.488Z310.045° NW
7 mins2025-05-14 14:05:18.488Z10.811° NNE2025-05-14 14:08:18.488Z249.354° W44.728°2025-05-14 14:12:18.488Z197.265° SSW
|